OBJECT G

Satellite information

Favourite Embed

Satellite Type and Status

UNKNOWNIN ORBIT

Key statistics

Satellite OBJECT G at a glance.

Uptime

2217

Days in orbit

Revolutions

≈ 15.2

Per day

Orbit

LEO

Low Earth Orbit

Inclination

45.0

Latest

Satellite identification and parameters

Extended collection of information and parameters for OBJECT G.

Object identification

Identified? True

Debris? False

Object name: OBJECT G

International designator: 2019-032G

Object number (NORAD): 44316

Object ID (CCSDS): 44316

Country: PEOPLES REPUBLIC OF CHINA (PRC)

Current information (Y/N): Y

RCS size: MEDIUM

Orbital parameters

Period: 94.872 minutes

Inclination: 44.9758 deg

SMA: 6890.543 km

Apoapsis: 522.582 km

Periapsis: 502.233 km

RAAN: 170.3139 deg

Eccentricy: 0.0014766

Argument of periapsis: 39.3528 deg

Mean anomaly: 320.8421 deg

Mean motion: 15.17828184 rev/day

Mean motion (dot): 0.00004736 rev/day2

B* drag term: 0.00024257 1/REarth

Two-line elements (TLE)

Creation date: June 30, 2025, 3:44 a.m.

Reference frame: TEME

Reference center: EARTH

Epoch: June 29, 2025, 8:47 p.m. UTC

TLE line 0: 0 OBJECT G

TLE line 1: 1 44316U 19032G 25180.86663970 .00004736 00000-0 24257-3 0 9997

TLE line 2: 2 44316 44.9758 170.3139 0014766 39.3528 320.8421 15.17828184333380

Live tracking on map

Real-time ground track for satellite OBJECT G.

In-orbit conjunctions

There are no conjunctions computed for OBJECT G, at the moment. Check back to stay up to date, as we update our databases every day.

Go to all conjunctions

Associated space launch

The first sea launch of Long March 11 rocket. It carries 7 satellites, which include a new high-resolution Earth observation satellite Jilin-1 and several test satellites, verifying such technologies as sea surface wind measuring and satellite interlink communication.

OBJECT G was lifted into orbit during the mission ‘Long March 11 | Jilin-1 & others’, on board a Long March 11 space rocket.

The launch took place on June 5, 2019, 4:06 a.m. from Tai Rui mobile launch platform.

For more information about the launch, click the button.

Launch to space Long March 11 | Jilin-1 & others
Long March 11 | Jilin-1 & others

Agency: N/A

Status: Launch Successful

Launch date: June 5, 2019, 4:06 a.m. UTC

Rocket: Long March 11

Launch pad: Tai Rui mobile launch platform

Location: Sea Launch

...

Latest news about this satellite

There are no fresh news available about this satellite. Check back as we update our databases every day.


Newsletter sign-up

Weekly statistics, charts and insights to help you stay on top of the space industry.